Погода в Ласта

Россия / Республика Коми     64°55′36″N   53°48′31″E
темп.,
°C
ветер,
м/с
пор.,
м/с
влажн.,
%
обл.,
%
осадки,
мм/ч
давл.,
гПа
погр.,
м
6 марта, сб
сб600:00−23сз249884 0.0 1003126
03:00−23зсз259891 0.1 1004176
06:00−23зсз269797 0.1 1004242
09:00−21зсз249696 0.1 1005347
12:00−20зсз2492100 0.1 1006503
15:00−19зсз2392100 0.1 1005532
18:00−21зсз1298100 0.1 100621
21:00−24з119996 0.1 100620
7 марта, вс
вс700:00−23з119897 0.1 100620
03:00−24ю019997 0.1 100720
06:00−24вюв119996 0.1 100720
09:00−21в119692 0.1 1007173
12:00−18в128894 0.0 1008536
15:00−18св128897 0.1 1008472
18:00−22св2398100 0.0 100835
21:00−25всв229899 0.1 100920
8 марта, пн
пн800:00−26св229998 0.0 100922
03:00−28ссв229997 0.1 100934
06:00−30ссв239989 0.0 100942
09:00−28ссв239776 0.0 1009193
12:00−24с359690 0.0 1009304
15:00−24ссв369695 0.0 1010391
18:00−28ссв3897100 0.0 1011252
21:00−33с379792 0.0 1012157
9 марта, вт
вт900:00−36с269868 0.0 1013128
03:00−37с249854 0.0 101382
06:00−37ссз239927 0.0 101444
09:00−33ссз249641 0.0 1014213
12:00−28ссз249486 0.0 1015375
15:00−25сз259493 0.0 1015390
18:00−30зсз229751 0.0 101519
21:00−30зюз229726 0.0 101520
10 марта, ср
ср1000:00−30юз239546 0.0 101457
03:00−27юз269872 0.0 1013155
06:00−27юз2698100 0.0 1011149
09:00−22юз3697100 0.1 1009271
12:00−16зюз3693100 0.3 1007486
15:00−14з3693100 0.4 1006501
18:00−15з2696100 0.1 1006193
21:00−14зсз3796100 0.2 1007261